Terminal Aerodrome Forecast
Issued by NWS Louisville, KY

Home | Current Version | Previous Version | Text Only | Print | Product List | Glossary On
Versions: 1 2 3 4 5 6 7 8 9 10 11 12 13 14 15 16 17
000
FTUS43 KLMK 262300
TAFSDF
TAF
KSDF 262328Z 2700/2806 08004KT P6SM SCT250
     FM270900 00000KT 6SM BR FEW250
     FM271400 01006KT P6SM SCT050
     FM280100 VRB03KT P6SM SCT250=

USA.gov is the U.S. government's official web portal to all federal, state and local government web resources and services.